Quick Links (Output Below):   Max & Min Temps   /   Climate Reports   /   Zone Forecasts
River Forecasts   /   Forestry Forecasts   /   Aviation Forecasts   /   Radars   /   Features

Zone Forecast (Scott County)

Pick a County:
Arkansas | Ashley | Baxter | Benton | Boone | Bradley | Calhoun | Carroll | Chicot | Clark | Clay
Cleburne | Cleveland | Columbia | Conway | Craighead | Crawford | Crittenden | Cross | Dallas
Desha | Drew | Faulkner | Franklin | Fulton | Garland | Grant | Greene | Hempstead | Hot Spring
Howard | Independence | Izard | Jackson | Jefferson | Johnson | Lafayette | Lawrence | Lee
Lincoln | Little River | Logan | Lonoke | Madison | Marion | Miller | Mississippi | Monroe
Montgomery | Nevada | Newton | Ouachita | Perry | Phillips | Pike | Poinsett | Polk | Pope | Prairie
Pulaski | Randolph | St. Francis | Saline | Scott | Searcy | Sebastian | Sevier | Sharp | Stone
Union | Van Buren | Washington | White | Woodruff | Yell
 Current Conditions 

WEATHER ROUNDUP FOR ARKANSAS
NATIONAL WEATHER SERVICE LITTLE ROCK AR
1000 PM CDT TUE MAY 24 2016

NOTE: "FAIR" INDICATES FEW OR NO CLOUDS BELOW 12,000 FEET WITH NO
SIGNIFICANT WEATHER AND/OR OBSTRUCTIONS TO VISIBILITY.

ARZ001-003-010-029-250400-
NORTHWEST ARKANSAS
  
CITY           SKY/WX    TMP DP  RH WIND       PRES   REMARKS
FAYETTEVILLE   TSTM      72  71  97 SW18      30.07R                  
FORT SMITH     CLOUDY    74  68  81 E8        30.00S                  
HARRISON       CLOUDY    63  62  97 S9        30.06R                  
BENTONVILLE    CLOUDY    73  66  78 S22G35    29.98F                  
ROGERS           N/A     74  69  85 S21G29    29.98F                  
SILOAM SPGS    CLOUDY    73  63  68 SE26G36   29.92F                  
HIGHFILL       CLOUDY    75  71  87 S20G25    29.98F                  
ARZ004-005-016-250400-
NORTH CENTRAL ARKANSAS
  
CITY           SKY/WX    TMP DP  RH WIND       PRES   REMARKS
BATESVILLE     CLOUDY    64  63  94 SE7       30.09R                  
FLIPPIN        CLOUDY   N/A N/A N/A S3        30.03R                  
MTN HOME       CLOUDY    62  61  96 S6        30.05R                  
ARZ040-041-250400-
WEST CENTRAL ARKANSAS
  
CITY           SKY/WX    TMP DP  RH WIND       PRES   REMARKS
MENA           CLEAR     77  72  83 CALM      30.05R                  
MOUNT IDA      MOCLDY    73  70  90 CALM      30.04R                  
ARZ009-017-025-026-028-250400-
NORTHEAST ARKANSAS
  
CITY           SKY/WX    TMP DP  RH WIND       PRES   REMARKS
CORNING          N/A     66  66 100 S7        30.05R                  
JONESBORO      LGT RAIN  67  65  93 SE10      30.05F                  
NEWPORT        CLOUDY    67  67 100 SE13      30.08F                  
WALNUT RIDGE   CLOUDY    66  61  82 SE20      29.98F                  
BLYTHEVILLE    LGT RAIN  68  67  96 S6        30.08F                  
ARZ022-023-033-042-044-250400-
CENTRAL ARKANSAS
  
CITY           SKY/WX    TMP DP  RH WIND       PRES   REMARKS
LITTLE ROCK    CLOUDY    68  64  87 E12       30.10R                  
N LITTLE ROCK    N/A     65  63  93 E13       30.07S                  
JACKSONVILLE   PTCLDY    67  65  95 E10       30.09R                  
SEARCY         TSTM      66  65  96 E13       30.12S                  
HOT SPRINGS    PTCLDY    77  69  76 E6        30.05R                  
RUSSELLVILLE   CLOUDY    67  65  93 VRB3      30.07R                  
CLINTON        MOCLDY    64  64 100 CALM      30.09S                  
ARZ036-250400-
EAST ARKANSAS
  
CITY           SKY/WX    TMP DP  RH WIND       PRES   REMARKS
WEST MEMPHIS   LGT RAIN  66  65  96 S3        30.15R                  
ARZ050-053-066-070-073-250400-
SOUTHWEST ARKANSAS
  
CITY           SKY/WX    TMP DP  RH WIND       PRES   REMARKS
ARKADELPHIA    FAIR      76  76 100 CALM      30.05R                  
CAMDEN         CLEAR     73  68  83 CALM      30.04R                  
TEXARKANA      MOCLDY    78  71  79 SE6       30.02R                  
EL DORADO      CLEAR     74  71  91 CALM      30.05R                  
DE QUEEN       PTCLDY    76  72  87 E3        29.99R                  
ARZ056-057-069-250400-
SOUTHEAST ARKANSAS
  
CITY           SKY/WX    TMP DP  RH WIND       PRES   REMARKS
PINE BLUFF     CLOUDY    70  63  78 NE17      30.10R                  
STUTTGART      CLOUDY    66  61  82 NE17      30.12F                  
MONTICELLO     CLOUDY    76  68  76 NE3       30.07R                  


 Forecast 

LAST UPDATED: 1002 PM CDT TUE MAY 24 2016

.OVERNIGHT...SHOWERS AND THUNDERSTORMS LIKELY. LOWS AROUND 70.
SOUTH WINDS 5 TO 10 MPH. THE CHANCE OF PRECIPITATION 70 PERCENT.
AVERAGE RAINFALL 1/10 TO 1/4 INCH. 
.WEDNESDAY...PARTLY SUNNY. A SLIGHT CHANCE OF SHOWERS AND
THUNDERSTORMS. HIGHS IN THE MID 80S. SOUTH WINDS 5 TO 10 MPH IN
THE MORNING...INCREASING TO 10 TO 15 MPH IN THE AFTERNOON. THE
CHANCE OF PRECIPITATION 20 PERCENT. AVERAGE RAINFALL LESS THAN
1/10 INCH. 
.WEDNESDAY NIGHT...MOSTLY CLOUDY. A SLIGHT CHANCE OF SHOWERS AND
THUNDERSTORMS. LOWS AROUND 70. SOUTH WINDS 5 TO 10 MPH. THE
CHANCE OF PRECIPITATION 20 PERCENT. AVERAGE RAINFALL LESS THAN
1/10 INCH. 
.THURSDAY...MOSTLY CLOUDY. A SLIGHT CHANCE OF SHOWERS AND
THUNDERSTORMS IN THE MORNING...THEN A CHANCE OF SHOWERS AND
THUNDERSTORMS IN THE AFTERNOON. HIGHS IN THE LOWER 80S. SOUTH
WINDS 5 TO 10 MPH IN THE MORNING...INCREASING TO 10 TO 15 MPH IN
THE AFTERNOON. THE CHANCE OF PRECIPITATION 40 PERCENT. 
Back to Main Page
http://www.srh.noaa.gov/lzk/qfcst.php

USA.gov is the U.S. government's official web portal to all federal, state and local government web resources and services.